Location: Home
(42.5358°N, 72.7383°W)
Time: 08:27:58
(UTC-05:00)

deb Explorer IX - Pass Details

Date: 01 December 2021
Orbit: 544 x 1082 km, 38.8° (Epoch: 19 January)

Event Time Altitude Azimuth Distance (km) Brightness Sun altitude
Rises 11:21:13 0° 237° (WSW) 2,885 ? 25.4°
Reaches altitude 10° 11:23:47 10° 228° (SW) 1,915 ? 25.4°
Maximum altitude 11:27:41 33° 163° (SSE) 944 ? 25.5°
Drops below altitude 10° 11:31:23 10° 99° (E) 1,808 ? 25.5°
Sets 11:33:44 0° 89° (E) 2,697 ? 25.5°
